Phenix City, Alabama, United States (36867)
Lat: 32.47N, Lon: 85W
Wx Zone: ALZ048
Local Info
Past Weather Observations for Yesterday

NOTE: This archive is for the closest National Weather Service station to Phenix City. Information may differ from the station used for current weather conditions.

Click here for Long-term Archive

Time Weather Temperature Dewpoint Humidity Pressure Winds Precip Visibility
23:51
Clear
70°F / 21°C 63°F / 17°C 78% 30.04 in
(1017 mb)
N 3.5 mph
(N 6 kph)
- 10SM
22:51
Clear
70°F / 21°C 64°F / 18°C 83% 30.01 in
(1016 mb)
Calm - 10SM
21:51
Clear
70°F / 21°C 64°F / 18°C 83% 30.04 in
(1017 mb)
Calm - 10SM
20:51
Clear
73°F / 23°C 64°F / 18°C 74% 30.01 in
(1016 mb)
E 3.5 mph
(E 6 kph)
- 10SM
19:51
Clear
77°F / 25°C 64°F / 18°C 65% 30.01 in
(1016 mb)
NNE 3.5 mph
(NNE 6 kph)
- 10SM
18:51
Clear
79°F / 26°C 64°F / 18°C 61% 30.01 in
(1016 mb)
ENE 3.5 mph
(ENE 6 kph)
- 10SM
17:51
Partly Cloudy
81°F / 27°C 64°F / 18°C 58% 30.01 in
(1016 mb)
ENE 3.5 mph
(ENE 6 kph)
- 10SM
16:51
Overcast
81°F / 27°C 63°F / 17°C 54% 30.01 in
(1016 mb)
E 6.9 mph
(E 11 kph)
- 10SM
15:51
Partly Cloudy
82°F / 28°C 63°F / 17°C 51% 30.01 in
(1016 mb)
E 12.7 mph
(E 20 kph)
- 10SM
14:51
Mostly Cloudy
82°F / 28°C 64°F / 18°C 55% 30.01 in
(1016 mb)
E 10.4 mph
(E 17 kph)
- 10SM
13:51
Mostly Cloudy
81°F / 27°C 64°F / 18°C 58% 30.04 in
(1017 mb)
SE 11.5 mph
(SE 19 kph)
- 10SM
12:59
Mostly Cloudy
79°F / 26°C 64°F / 18°C 61% 30.06 in
(1018 mb)
ENE 9.2 mph
(ENE 15 kph)
- 10SM
12:51
Overcast
77°F / 25°C 64°F / 18°C 65% 30.06 in
(1018 mb)
E 10.4 mph
(E 17 kph)
- 10SM
12:30
Overcast
75°F / 24°C 64°F / 18°C 69% 30.09 in
(1019 mb)
ENE 9.2 mph
(ENE 15 kph)
- 10SM
11:51
Overcast
75°F / 24°C 64°F / 18°C 69% 30.09 in
(1019 mb)
ENE 9.2 mph
(ENE 15 kph)
- 10SM
10:51
Overcast
73°F / 23°C 64°F / 18°C 74% 30.12 in
(1020 mb)
E 9.2 mph
(E 15 kph)
- 10SM
09:51
Overcast
72°F / 22°C 64°F / 18°C 78% 30.12 in
(1020 mb)
E 12.7 mph
(E 20 kph)
- 10SM
08:51
Overcast
72°F / 22°C 64°F / 18°C 78% 30.09 in
(1019 mb)
E 11.5 mph
(E 19 kph)
- 10SM
07:51
Overcast
70°F / 21°C 64°F / 18°C 83% 30.09 in
(1019 mb)
E 11.5 mph
(E 19 kph)
- 10SM
07:21
Overcast
70°F / 21°C 64°F / 18°C 83% 30.09 in
(1019 mb)
E 10.4 mph
(E 17 kph)
- 10SM
06:51
Overcast
70°F / 21°C 64°F / 18°C 83% 30.09 in
(1019 mb)
E 11.5 mph
(E 19 kph)
- 10SM
05:51
Mostly Cloudy
70°F / 21°C 64°F / 18°C 83% 30.06 in
(1018 mb)
E 10.4 mph
(E 17 kph)
- 10SM
05:42
Mostly Cloudy
70°F / 21°C 64°F / 18°C 83% 30.06 in
(1018 mb)
E 8.1 mph
(E 13 kph)
- 10SM
05:24
Partly Cloudy
70°F / 21°C 64°F / 18°C 83% 30.06 in
(1018 mb)
ENE 8.1 mph
(ENE 13 kph)
- 10SM
04:51
Mostly Cloudy
70°F / 21°C 64°F / 18°C 83% 30.06 in
(1018 mb)
ENE 8.1 mph
(ENE 13 kph)
- 10SM
04:48
Mostly Cloudy
70°F / 21°C 64°F / 18°C 83% 30.06 in
(1018 mb)
ENE 10.4 mph
(ENE 17 kph)
- 10SM
03:51
Clear
70°F / 21°C 64°F / 18°C 83% 30.06 in
(1018 mb)
E 9.2 mph
(E 15 kph)
- 10SM
02:51
Clear
70°F / 21°C 64°F / 18°C 83% 30.06 in
(1018 mb)
E 11.5 mph
(E 19 kph)
- 10SM
01:51
Clear
70°F / 21°C 64°F / 18°C 83% 30.06 in
(1018 mb)
E 9.2 mph
(E 15 kph)
- 10SM
00:51
Clear
70°F / 21°C 64°F / 18°C 83% 30.06 in
(1018 mb)
E 8.1 mph
(E 13 kph)
- 10SM
Time Weather Temperature Dewpoint Humidity Pressure Winds Precip Visibility


Weather for websites

WeatherForYou.com, LLC is not responsible for any damages or problems caused by this service. Current weather conditions are obtained from the closest station including government and personal stations which may have varying degrees of accuracy. Weather forecasts are derived from the NOAA NDFD. Like all things, this site belongs to Jesus Christ... He just trusts me to maintain it. If you have any questions or comments email webmaster@weatherforyou.com

Copyright © 2014, WeatherForYou.com LLC. All rights reserved.